STARLINK-33752, 63580

Orbit data source: Space-Track

STARLINK-33752, 63580 is a payload satellite owned by SpaceX/Seattle (US) in LEO that was launched on Mon, 14 Apr 2025 UTC via an FALCON 9 launch vehicle from the Air Force Eastern Test Range (AFETR). Payload-class satellites include a variety of spacecraft equipped with specific instruments for various scientific and technological missions. These include communications satellites like Starlink; space stations such as the ISS; scientific satellites like the Hubble; Earth observation satellites from companies like Planet Labs, Umbra, and HawkEye 360; GPS; miniature CubeSats for education and research; and military/defense satellites.

Loading next visibility...
Identifier
63580, 2025-076M
Orbit
LEO
Last TLE update
14 hours ago
Origin
Manufacturer
SpaceX/Seattle
Mission
Operational Commercial Communications
Bus & Motor
STARLINK V2MO, Unknown motor
Mass
575 kg wet, ~530 kg dry
Launch date (UTC)
2025-04-14 (3 months ago)
Launch vehicle
FALCON 9
Launch site
Air Force Eastern Test Range (AFETR)
Object type
Payload
Rocket body
Debris
Shape & HBR
Box + 1 Pan, 29 m
Radar Cross Section
41.120 m², Large (>1 m²)

Expand to show TLE details & history

TLE from 14 hours ago
0 STARLINK-33752
1 63580U 25076M   25181.72019018  .00012839  00000-0  47481-3 0  9997
2 63580  43.0016 304.7965 0001000 298.9249  61.1503 15.27611128 13291
Epoch: 2025-06-30T17:17Z
TLE epoch observation values (Epoch: 2025-06-30T17:17:04.431Z)
Latitude
0.00003°
Longitude
126.50212°
Altitude
482.401 km
Speed
7.626 km/s
True Right ascension
20h 19m 11s
True Declination
0° 00' 00"
Sunlit
Object was in full shadow at epoch
Visualization orbit readout
Latitude
-42.1993°
Longitude
48.03588°
Altitude
495.227 km
Speed
7.618 km/s
Apparent Right ascension
11h 02m 28s
Apparent Declination
-62° 18' 11"
Sunlit
Object is in full shadow
Visualization observer readout
Local Sidereal Time
18:41:39
Azimuth
217.293° SW
Elevation
-45.86°
Doppler factor
1
Orbital elements
Apogee altitude
485.587 km
Perigee altitude
484.215 km
Semi-major axis
6,863.038 km
Eccentricity
0.0001
Inclination
43.0016°
RAAN
304.7965°
Arg. of periapsis
298.9249°
True anomaly
Unknown
Mean anomaly
61.1503°
Eccentric anomaly
Unknown
Mean motion
3.81741 °/min
Orbital period
94.3 mins
BSTAR
0.00047481
Loading maneuver chart data...
Loading SW <> Apogee altitude chart data...
Loading historical data...
Loading historical data...
Loading historical data...
Loading historical data...
Loading historical data...
Loading historical data...
Loading historical data...

STARLINK-33752 Visibility forecast

Observer location: undefined°, undefined°

Span
Click to sort rows by Start time (UTC) header in descending order
Start Az.
Max El. time (UTC)
Max El. Az.
Max El.
End time (UTC)
End Az.
4 mins2025-07-01 10:43:45.713Z185.796° SSW2025-07-01 10:45:45.713Z150.863° SSE17.797°2025-07-01 10:47:45.713Z110.9° ESE
5 mins2025-07-01 12:22:45.713Z243.111° WSW2025-07-01 12:24:45.713Z128.585° SE44.386°2025-07-01 12:27:45.713Z73.497° E
5 mins2025-07-01 14:01:45.713Z289.669° WNW2025-07-01 14:03:45.713Z358.517° N38.267°2025-07-01 14:06:45.713Z72.061° E
5 mins2025-07-01 15:40:45.713Z292.824° NW2025-07-01 15:42:45.713Z347.493° N43.577°2025-07-01 15:45:45.713Z99.1° ESE
5 mins2025-07-01 17:19:45.713Z260.397° W2025-07-01 17:21:45.713Z209.029° SW27.447°2025-07-01 17:24:45.713Z149.805° SSE
|